When you browse on this site, cookies collect data to enhance your experience and personalize the content and advertising you see.
Visit our Privacy Policy to learn more. By continuing to use the site, you agree to this use of cookies and data.

Stündliche Wetter Ituni

Heute, 4 August, Dienstag

Zeit Temperatur Niederschläge Wind Luftdruck Luftfeuchtigkeit
00:00 +23°C° 1.3 mm 0 m/S 755 mmHg 95%
01:00 +23°C° 1.3 mm 0 m/S 754 mmHg 96%
02:00 +22°C° 0 mm 0 m/S 754 mmHg 98%
03:00 +22°C° 0.9 mm 0 m/S 754 mmHg 98%
04:00 +22°C° 0.9 mm 0 m/S 754 mmHg 98%
05:00 +22°C° 0.9 mm 0 m/S 754 mmHg 98%
06:00 +23°C° 0 mm 0 m/S 754 mmHg 95%
07:00 +24°C° 0 mm 0 m/S 755 mmHg 91%
08:00 +25°C° 0 mm 0 m/S 755 mmHg 88%
09:00 +28°C° 0 mm 0 m/S 755 mmHg 76%
10:00 +32°C° 0 mm 1 m/S 755 mmHg 63%
11:00 +35°C° 0 mm 1 m/S 755 mmHg 51%
12:00 +34°C° 0.7 mm 1 m/S 754 mmHg 55%
13:00 +33°C° 0.7 mm 1 m/S 753 mmHg 60%
14:00 +33°C° 0.7 mm 1 m/S 752 mmHg 64%
15:00 +31°C° 1.2 mm 1 m/S 752 mmHg 73%
16:00 +30°C° 1.2 mm 1 m/S 752 mmHg 82%
17:00 +29°C° 1.2 mm 1 m/S 752 mmHg 90%
18:00 +28°C° 0.5 mm 1 m/S 752 mmHg 92%
19:00 +27°C° 0.5 mm 1 m/S 753 mmHg 93%
20:00 +26°C° 0.5 mm 1 m/S 754 mmHg 95%
21:00 +26°C° 0.1 mm 1 m/S 754 mmHg 96%
22:00 +23°C° 0.1 mm 0 m/S 754 mmHg 96%
23:00 +23°C° 0.1 mm 0 m/S 755 mmHg 97%

Morgen, 5 August, Mittwoch

Zeit Temperatur Niederschläge Wind Luftdruck Luftfeuchtigkeit
00:00 +23°C° 0.1 mm 0 m/S 754 mmHg 97%
01:00 +23°C° 0.1 mm 0 m/S 754 mmHg 97%
02:00 +23°C° 0.1 mm 0 m/S 753 mmHg 97%
03:00 +23°C° 0.5 mm 0 m/S 753 mmHg 97%
04:00 +23°C° 0.5 mm 0 m/S 753 mmHg 98%
05:00 +22°C° 0.5 mm 0 m/S 753 mmHg 98%
06:00 +23°C° 0.8 mm 0 m/S 754 mmHg 96%
07:00 +24°C° 0.8 mm 0 m/S 754 mmHg 94%
08:00 +25°C° 0.8 mm 0 m/S 754 mmHg 93%
09:00 +26°C° 1.4 mm 0 m/S 754 mmHg 88%
10:00 +27°C° 1.4 mm 0 m/S 754 mmHg 84%
11:00 +31°C° 1.4 mm 1 m/S 754 mmHg 79%
12:00 +30°C° 0.6 mm 0 m/S 753 mmHg 71%
13:00 +31°C° 0.6 mm 0 m/S 753 mmHg 63%
14:00 +32°C° 0.6 mm 0 m/S 752 mmHg 54%
15:00 +31°C° 0.2 mm 0 m/S 752 mmHg 61%
16:00 +30°C° 0.2 mm 0 m/S 751 mmHg 67%
17:00 +29°C° 0.2 mm 0 m/S 751 mmHg 74%
18:00 +29°C° 0.6 mm 1 m/S 752 mmHg 81%
19:00 +27°C° 0.6 mm 1 m/S 752 mmHg 88%
20:00 +26°C° 0.6 mm 1 m/S 753 mmHg 96%
21:00 +26°C° 0.3 mm 1 m/S 753 mmHg 96%
22:00 +25°C° 0.3 mm 1 m/S 753 mmHg 97%
23:00 +23°C° 0.3 mm 0 m/S 754 mmHg 97%

übermorgen, 6 August, Donnerstag

Zeit Temperatur Niederschläge Wind Luftdruck Luftfeuchtigkeit
00:00 +23°C° 0 mm 0 m/S 753 mmHg 97%
01:00 +23°C° 0 mm 0 m/S 753 mmHg 97%
02:00 +23°C° 0 mm 0 m/S 752 mmHg 98%
03:00 +22°C° 0 mm 0 m/S 752 mmHg 98%
04:00 +22°C° 0 mm 0 m/S 752 mmHg 98%
05:00 +22°C° 0 mm 0 m/S 752 mmHg 98%
06:00 +23°C° 0 mm 0 m/S 753 mmHg 95%
07:00 +24°C° 0 mm 0 m/S 753 mmHg 91%
08:00 +26°C° 0 mm 0 m/S 754 mmHg 88%
09:00 +29°C° 0.3 mm 1 m/S 754 mmHg 79%
10:00 +31°C° 0.3 mm 1 m/S 754 mmHg 69%
11:00 +34°C° 0.3 mm 2 m/S 754 mmHg 60%
12:00 +33°C° 0.8 mm 1 m/S 753 mmHg 62%
13:00 +33°C° 0.8 mm 1 m/S 752 mmHg 63%
14:00 +33°C° 0.8 mm 1 m/S 751 mmHg 65%
15:00 +32°C° 1.2 mm 1 m/S 751 mmHg 73%
16:00 +31°C° 1.2 mm 1 m/S 751 mmHg 81%
17:00 +28°C° 1.2 mm 0 m/S 751 mmHg 88%
18:00 +29°C° 0.5 mm 1 m/S 751 mmHg 91%
19:00 +27°C° 0.5 mm 1 m/S 752 mmHg 94%
20:00 +26°C° 0.5 mm 1 m/S 753 mmHg 96%
21:00 +26°C° 0.5 mm 1 m/S 753 mmHg 97%
22:00 +25°C° 0.5 mm 1 m/S 753 mmHg 97%
23:00 +25°C° 0.5 mm 1 m/S 754 mmHg 97%

7 August, Freitag

Zeit Temperatur Niederschläge Wind Luftdruck Luftfeuchtigkeit
00:00 +25°C° 0 mm 1 m/S 754 mmHg 97%
01:00 +23°C° 0 mm 0 m/S 753 mmHg 97%
02:00 +23°C° 0 mm 0 m/S 753 mmHg 97%
03:00 +23°C° 0.4 mm 0 m/S 753 mmHg 98%
04:00 +23°C° 0.4 mm 0 m/S 753 mmHg 98%
05:00 +22°C° 0.4 mm 0 m/S 753 mmHg 98%
06:00 +23°C° 0.4 mm 0 m/S 753 mmHg 96%
07:00 +24°C° 0.4 mm 0 m/S 754 mmHg 94%
08:00 +25°C° 0.4 mm 0 m/S 755 mmHg 92%
09:00 +28°C° 1.5 mm 1 m/S 754 mmHg 90%
10:00 +29°C° 1.5 mm 1 m/S 754 mmHg 87%
11:00 +30°C° 1.5 mm 1 m/S 754 mmHg 85%
12:00 +31°C° 0.6 mm 1 m/S 753 mmHg 75%
13:00 +33°C° 0.6 mm 1 m/S 753 mmHg 66%
14:00 +34°C° 0.6 mm 1 m/S 752 mmHg 57%
15:00 +33°C° 0.6 mm 1 m/S 752 mmHg 66%
16:00 +31°C° 0.6 mm 1 m/S 752 mmHg 75%
17:00 +30°C° 0.6 mm 1 m/S 751 mmHg 85%
18:00 +29°C° 1 mm 1 m/S 752 mmHg 88%
19:00 +25°C° 1 mm 0 m/S 753 mmHg 91%
20:00 +24°C° 1 mm 0 m/S 753 mmHg 95%
21:00 +23°C° 0.1 mm 0 m/S 754 mmHg 96%
22:00 +23°C° 0.1 mm 0 m/S 754 mmHg 96%
23:00 +23°C° 0.1 mm 0 m/S 754 mmHg 97%

8 August, Samstag

Zeit Temperatur Niederschläge Wind Luftdruck Luftfeuchtigkeit
00:00 +23°C° 0.2 mm 0 m/S 754 mmHg 97%
01:00 +23°C° 0.2 mm 0 m/S 753 mmHg 97%
02:00 +22°C° 0.2 mm 0 m/S 753 mmHg 97%
03:00 +22°C° 0.2 mm 0 m/S 753 mmHg 98%
04:00 +22°C° 0.2 mm 0 m/S 753 mmHg 98%
05:00 +22°C° 0.2 mm 0 m/S 753 mmHg 98%
06:00 +23°C° 0.2 mm 0 m/S 754 mmHg 95%
07:00 +24°C° 0.2 mm 0 m/S 754 mmHg 92%
08:00 +25°C° 0.2 mm 0 m/S 755 mmHg 89%
09:00 +27°C° 1.9 mm 0 m/S 755 mmHg 86%
10:00 +28°C° 1.9 mm 0 m/S 754 mmHg 84%
11:00 +31°C° 1.9 mm 1 m/S 754 mmHg 81%
12:00 +31°C° 2 mm 1 m/S 753 mmHg 82%
13:00 +30°C° 2 mm 1 m/S 753 mmHg 84%
14:00 +30°C° 2 mm 1 m/S 752 mmHg 86%
15:00 +30°C° 1.8 mm 1 m/S 752 mmHg 88%
16:00 +30°C° 1.8 mm 1 m/S 752 mmHg 89%
17:00 +27°C° 1.8 mm 0 m/S 752 mmHg 91%
18:00 +26°C° 1 mm 0 m/S 752 mmHg 93%
19:00 +25°C° 1 mm 0 m/S 753 mmHg 94%
20:00 +24°C° 1 mm 0 m/S 754 mmHg 95%
21:00 +26°C° 1.8 mm 1 m/S 754 mmHg 96%
22:00 +26°C° 1.8 mm 1 m/S 754 mmHg 96%
23:00 +25°C° 1.8 mm 1 m/S 754 mmHg 97%

9 August, Sonntag

Zeit Temperatur Niederschläge Wind Luftdruck Luftfeuchtigkeit
00:00 +25°C° 1.6 mm 1 m/S 754 mmHg 97%
01:00 +25°C° 1.6 mm 1 m/S 753 mmHg 98%
02:00 +25°C° 1.6 mm 1 m/S 753 mmHg 98%
03:00 +25°C° 0.4 mm 1 m/S 753 mmHg 98%
04:00 +25°C° 0.4 mm 1 m/S 753 mmHg 98%
05:00 +22°C° 0.4 mm 0 m/S 753 mmHg 98%
06:00 +23°C° 0 mm 0 m/S 753 mmHg 96%
07:00 +24°C° 0 mm 0 m/S 754 mmHg 94%
08:00 +27°C° 0 mm 1 m/S 754 mmHg 92%
09:00 +27°C° 0.2 mm 0 m/S 754 mmHg 79%
10:00 +30°C° 0.2 mm 0 m/S 754 mmHg 67%
11:00 +33°C° 0.2 mm 0 m/S 754 mmHg 55%
12:00 +32°C° 0.5 mm 0 m/S 753 mmHg 58%
13:00 +34°C° 0.5 mm 1 m/S 752 mmHg 61%
14:00 +33°C° 0.5 mm 1 m/S 751 mmHg 63%
15:00 +32°C° 1.1 mm 1 m/S 751 mmHg 72%
16:00 +31°C° 1.1 mm 1 m/S 751 mmHg 81%
17:00 +28°C° 1.1 mm 0 m/S 751 mmHg 89%
18:00 +27°C° 0.8 mm 0 m/S 751 mmHg 91%
19:00 +25°C° 0.8 mm 0 m/S 752 mmHg 94%
20:00 +26°C° 0.8 mm 1 m/S 752 mmHg 96%
21:00 +26°C° 0.4 mm 1 m/S 753 mmHg 96%
22:00 +26°C° 0.4 mm 1 m/S 753 mmHg 97%
23:00 +26°C° 0.4 mm 1 m/S 753 mmHg 97%
Mehr zeigen